User: anonymous   Login
Location: Unspecified
(0.0000°N, 0.0000°E)
Time: 05:42:04
(UTC+00:00)
Language:

TIANQI 16 - Orbit

View from above orbital plane
View from above orbital plane
View from above satellite
View from above satellite

Ground track
Ground track

The orbit is defined by the following mean orbital elements,

1 64058U          26145.63371639 +.00000000 +00000-0 +36796-4 0 00007
2 64058  44.9824 122.7144 0012664 274.7397  85.1989 13.99144652    09
Epoch (UTC): 25 May 2026 15:12:33
Eccentricity: 0.0012664
inclination: 44.9824°
perigee height: 888 km
apogee height: 906 km
right ascension of ascending node: 122.7144°
argument of perigee: 274.7397°
revolutions per day: 13.99144652
mean anomaly at epoch: 85.1989°

The dashed part of the orbit path shows where the satellite is in the earth's shadow,  

DLR